N9DMT-13 Weather Reports


Display with metric or nautical units.
time (UTC)temp
F
wind
direction
speed
MPH
gust
MPH
rain 1hr
in
rain 24hr
in
rain mn
in
humidity
%
barometer
mb
20260503225555 74 327 0.0 1.0 0.00 0.00 0.00 30 971.8
20260503225053 73 11 0.0 1.0 0.00 0.00 0.00 31 971.8
20260503224553 74 351 3.0 4.0 0.00 0.00 0.00 31 971.8
20260503224052 74 356 0.0 0.0 0.00 0.00 0.00 32 971.9
20260503223551 75 258 2.0 3.0 0.00 0.00 0.00 31 971.9
20260503223050 75 261 0.0 0.0 0.00 0.00 0.00 31 971.9
20260503222549 75 318 0.0 0.0 0.00 0.00 0.00 31 971.9
20260503222048 75 352 0.0 0.0 0.00 0.00 0.00 32 971.8
20260503221546 75 309 0.0 1.0 0.00 0.00 0.00 31 972.0
20260503221045 74 255 2.0 3.0 0.00 0.00 0.00 32 971.9
20260503220544 75 257 2.0 2.0 0.00 0.00 0.00 31 971.9
20260503220043 76 272 3.0 4.0 0.00 0.00 0.00 31 972.0
20260503215542 75 308 0.0 0.0 0.00 0.00 0.00 33 971.7
20260503215041 75 342 0.0 0.0 0.00 0.00 0.00 34 971.9
20260503214541 75 268 2.0 3.0 0.00 0.00 0.00 33 972.1
20260503214040 75 286 0.0 1.0 0.00 0.00 0.00 33 972.0
20260503213539 74 277 0.0 1.0 0.00 0.00 0.00 33 971.9
20260503213038 73 340 0.0 0.0 0.00 0.00 0.00 35 972.0
20260503212538 74 224 3.0 4.0 0.00 0.00 0.00 34 972.0
20260503212037 74 289 1.0 2.0 0.00 0.00 0.00 34 972.0
20260503211536 74 268 2.0 2.0 0.00 0.00 0.00 33 972.1
20260503211035 74 221 2.0 2.0 0.00 0.00 0.00 34 972.2
20260503210535 75 272 2.0 3.0 0.00 0.00 0.00 34 972.4
20260503210034 74 0 0.0 1.0 0.00 0.00 0.00 36 972.2
20260503205533 74 255 2.0 2.0 0.00 0.00 0.00 35 972.3
20260503205032 74 241 2.0 2.0 0.00 0.00 0.00 36 972.3
20260503204532 73 303 1.0 2.0 0.00 0.00 0.00 36 972.3
20260503204031 72 290 4.0 4.0 0.00 0.00 0.00 36 972.5
20260503203530 74 347 1.0 2.0 0.00 0.00 0.00 36 972.5
20260503203029 74 301 0.0 0.0 0.00 0.00 0.00 36 972.7
20260503202529 73 329 0.0 0.0 0.00 0.00 0.00 39 972.7
20260503193520 73 338 0.0 0.0 0.00 0.00 0.00 38 973.1
20260503193020 72 329 0.0 0.0 0.00 0.00 0.00 40 973.2
20260503192519 72 212 0.0 0.0 0.00 0.00 0.00 40 973.3
20260503192018 72 349 0.0 0.0 0.00 0.00 0.00 39 973.3
20260503191517 72 253 1.0 2.0 0.00 0.00 0.00 37 973.4
20260503191017 72 342 0.0 0.0 0.00 0.00 0.00 39 973.4
20260503190516 71 239 1.0 1.0 0.00 0.00 0.00 38 973.4
20260503190016 70 332 0.0 0.0 0.00 0.00 0.00 42 973.5
20260503185515 71 252 2.0 3.0 0.00 0.00 0.00 39 973.6
20260503185014 69 284 1.0 2.0 0.00 0.00 0.00 40 973.8
20260503184513 70 254 0.0 1.0 0.00 0.00 0.00 39 973.8
20260503184013 70 245 3.0 4.0 0.00 0.00 0.00 41 973.6
20260503183512 70 10 0.0 0.0 0.00 0.00 0.00 42 973.7
20260503183011 69 280 0.0 1.0 0.00 0.00 0.00 41 973.7
20260503182510 69 197 5.0 6.0 0.00 0.00 0.00 38 973.9
20260503182010 70 291 2.0 3.0 0.00 0.00 0.00 38 973.8
20260503181509 69 265 0.0 0.0 0.00 0.00 0.00 43 973.9
20260503181008 68 331 1.0 4.0 0.00 0.00 0.00 42 973.9
20260503180508 69 176 0.0 1.0 0.00 0.00 0.00 38 974.0
20260503180007 68 359 0.0 1.0 0.00 0.00 0.00 43 974.1
20260503175506 67 162 1.0 1.0 0.00 0.00 0.00 46 974.3
20260503175006 67 267 3.0 4.0 0.00 0.00 0.00 41 974.1
20260503174505 68 179 3.0 4.0 0.00 0.00 0.00 39 974.1
20260503174004 67 252 1.0 1.0 0.00 0.00 0.00 43 974.1
20260503173503 66 255 1.0 3.0 0.00 0.00 0.00 44 974.3
20260503173003 66 184 0.0 0.0 0.00 0.00 0.00 42 974.4
20260503172502 66 268 0.0 0.0 0.00 0.00 0.00 43 974.6
20260503172001 66 274 0.0 0.0 0.00 0.00 0.00 43 974.5
20260503171500 66 331 0.0 0.0 0.00 0.00 0.00 45 974.5
20260503170959 66 270 0.0 0.0 0.00 0.00 0.00 42 974.7
20260503170459 66 329 0.0 0.0 0.00 0.00 0.00 41 974.7
20260503150941 61 322 2.0 3.0 0.00 0.00 0.00 45 975.7
20260503150440 61 190 4.0 4.0 0.00 0.00 0.00 45 975.7
20260503130923 54 270 1.0 2.0 0.00 0.00 0.00 61 976.8
20260503130422 53 236 3.0 4.0 0.00 0.00 0.00 61 976.9
20260503110405 53 347 0.0 0.0 0.00 0.00 0.00 61 977.9
20260503090346 42 349 0.0 0.0 0.00 0.00 0.00 82 978.9
20260503081338 40 12 0.0 0.0 0.00 0.00 0.00 84 979.2
20260503080837 40 23 0.0 0.0 0.00 0.00 0.00 87 979.1
20260503080337 40 31 0.0 0.0 0.00 0.00 0.00 87 979.2
20260503072832 39 6 0.0 0.0 0.00 0.00 0.00 89 979.5
20260503072331 39 6 0.0 0.0 0.00 0.00 0.00 89 979.5
20260503071831 39 7 0.0 0.0 0.00 0.00 0.00 89 979.6
20260503071330 38 7 0.0 0.0 0.00 0.00 0.00 90 979.6
20260503070829 38 7 0.0 0.0 0.00 0.00 0.00 90 979.6
20260503070329 38 7 0.0 0.0 0.00 0.00 0.00 91 979.4
20260503060321 36 8 0.0 0.0 0.00 0.00 0.00 91 980.0
20260503054818 36 8 0.0 0.0 0.00 0.00 0.00 91 980.2
20260503054317 36 8 0.0 0.0 0.00 0.00 0.00 90 980.2
20260503053817 36 8 0.0 0.0 0.00 0.00 0.00 90 980.3
20260503053316 36 8 0.0 0.0 0.00 0.00 0.00 89 980.3
20260503052815 37 8 0.0 0.0 0.00 0.00 0.00 89 980.2
20260503052315 37 8 0.0 0.0 0.00 0.00 0.00 88 980.2
20260503051814 38 8 0.0 0.0 0.00 0.00 0.00 88 980.3
20260503051313 38 8 0.0 0.0 0.00 0.00 0.00 89 980.3
20260503050812 38 8 0.0 0.0 0.00 0.00 0.00 89 980.5
20260503050312 38 8 0.0 0.0 0.00 0.00 0.00 88 980.4
20260503045811 38 8 0.0 0.0 0.00 0.00 0.00 88 980.4
20260503045310 38 8 0.0 0.0 0.00 0.00 0.00 87 980.5
20260503044809 38 8 0.0 0.0 0.00 0.00 0.00 87 980.5
20260503044309 38 8 0.0 0.0 0.00 0.00 0.00 87 980.4
20260503043808 38 8 0.0 0.0 0.00 0.00 0.00 87 980.5
20260503043307 39 8 0.0 0.0 0.00 0.00 0.00 86 980.7
20260503042806 39 8 0.0 0.0 0.00 0.00 0.00 86 980.7
20260503042306 39 9 0.0 0.0 0.00 0.00 0.00 86 980.7
20260503041805 39 9 0.0 0.0 0.00 0.00 0.00 86 980.6
20260503041304 39 9 0.0 0.0 0.00 0.00 0.00 86 981.0
20260503040804 39 9 0.0 0.0 0.00 0.00 0.00 86 980.9
20260503040303 39 9 0.0 0.0 0.00 0.00 0.00 86 980.9
20260503035802 39 9 0.0 0.0 0.00 0.00 0.00 86 981.0
20260503035304 39 9 0.0 0.0 0.00 0.00 0.00 86 981.0
20260503034801 40 9 0.0 0.0 0.00 0.00 0.00 85 981.1
20260503034300 40 9 0.0 0.0 0.00 0.00 0.00 85 981.2
20260503033759 40 9 0.0 0.0 0.00 0.00 0.00 84 981.2
20260503033259 40 9 0.0 0.0 0.00 0.00 0.00 84 981.1
20260503032758 40 9 0.0 0.0 0.00 0.00 0.00 84 981.2
20260503032257 41 9 0.0 0.0 0.00 0.00 0.00 83 981.3
20260503031757 41 9 0.0 0.0 0.00 0.00 0.00 83 981.2
20260503031256 41 9 0.0 0.0 0.00 0.00 0.00 81 981.2
20260503030755 41 9 0.0 0.0 0.00 0.00 0.00 81 981.4
20260503030254 42 9 0.0 0.0 0.00 0.00 0.00 81 981.3
20260503025753 42 9 0.0 0.0 0.00 0.00 0.00 81 981.3
20260503025252 42 9 0.0 0.0 0.00 0.00 0.00 81 981.4
20260503024752 43 9 0.0 0.0 0.00 0.00 0.00 79 981.3
20260503024251 43 8 0.0 0.0 0.00 0.00 0.00 78 981.2
20260503023750 43 8 0.0 0.0 0.00 0.00 0.00 78 981.5
20260503023249 43 9 0.0 0.0 0.00 0.00 0.00 78 981.4
20260503022748 44 9 0.0 0.0 0.00 0.00 0.00 78 981.4
20260503022247 44 9 0.0 0.0 0.00 0.00 0.00 76 981.5
20260503021746 44 9 0.0 0.0 0.00 0.00 0.00 76 981.4
20260503021246 44 9 0.0 0.0 0.00 0.00 0.00 76 981.6
20260503020745 45 9 0.0 0.0 0.00 0.00 0.00 74 981.5
20260503020244 45 9 0.0 0.0 0.00 0.00 0.00 73 981.3
20260503015743 45 8 0.0 0.0 0.00 0.00 0.00 72 981.3
20260503015243 46 9 0.0 0.0 0.00 0.00 0.00 73 981.3
20260503014742 46 9 0.0 0.0 0.00 0.00 0.00 70 981.4
20260503014241 47 9 0.0 0.0 0.00 0.00 0.00 69 981.3
20260503013740 47 9 0.0 0.0 0.00 0.00 0.00 65 981.3
20260503013240 48 9 0.0 0.0 0.00 0.00 0.00 64 981.3
20260503012739 49 9 0.0 0.0 0.00 0.00 0.00 65 981.3
20260503012238 49 12 0.0 0.0 0.00 0.00 0.00 61 981.2
20260503011738 50 12 0.0 0.0 0.00 0.00 0.00 58 981.2
20260503011237 50 12 0.0 0.0 0.00 0.00 0.00 55 981.2
20260503010736 51 12 0.0 0.0 0.00 0.00 0.00 56 981.3
20260503010235 52 14 0.0 0.0 0.00 0.00 0.00 52 981.1
20260503005735 53 17 0.0 0.0 0.00 0.00 0.00 51 981.4
20260503005234 54 2 0.0 0.0 0.00 0.00 0.00 46 981.2
20260503004733 55 11 0.0 0.0 0.00 0.00 0.00 47 981.3
20260503004232 56 9 0.0 0.0 0.00 0.00 0.00 40 981.2
20260503003731 56 8 0.0 0.0 0.00 0.00 0.00 39 981.5
20260503003230 56 356 0.0 0.0 0.00 0.00 0.00 40 981.3
20260503002729 57 24 0.0 0.0 0.00 0.00 0.00 36 981.4
20260503002228 57 348 0.0 0.0 0.00 0.00 0.00 36 981.4
20260503001726 58 342 0.0 0.0 0.00 0.00 0.00 37 981.4
20260503001226 58 9 0.0 0.0 0.00 0.00 0.00 35 981.7
20260503000725 58 2 0.0 0.0 0.00 0.00 0.00 35 981.5
20260503000225 58 17 0.0 0.0 0.00 0.00 0.00 35 981.6
20260502235724 59 19 0.0 0.0 0.00 0.00 0.00 35 981.6
20260502235222 59 359 0.0 0.0 0.00 0.00 0.00 35 981.5
20260502234722 60 354 0.0 0.0 0.00 0.00 0.00 34 981.7
20260502234221 60 287 0.0 0.0 0.00 0.00 0.00 35 981.7
20260502233720 60 277 1.0 1.0 0.00 0.00 0.00 33 981.5
20260502233220 60 333 1.0 2.0 0.00 0.00 0.00 33 981.7
20260502232719 60 292 2.0 3.0 0.00 0.00 0.00 33 981.7
20260502232219 60 286 1.0 2.0 0.00 0.00 0.00 32 981.8
20260502231718 61 6 0.0 0.0 0.00 0.00 0.00 31 981.8
20260502231217 61 330 1.0 1.0 0.00 0.00 0.00 31 981.8
20260502230716 61 253 0.0 1.0 0.00 0.00 0.00 32 982.0
20260502230215 61 293 0.0 0.0 0.00 0.00 0.00 35 982.0
20260502225715 61 314 0.0 1.0 0.00 0.00 0.00 33 982.2